Вернуться в каталог

DELTA 1 DEB

АктивенLEO
NORAD 3811·DEBRIS·🇺🇸 United States

Запущен Dec 15, 1968 с Vandenberg Space Force Base

Loading…

Ближайшие Пролёты (ближайшие 24 часа)

TLE

СвежийSource: Space-Track

Эпоха: Sep 14, 2026, 07:24 UTC

1 03811U 68114C   26257.30841560 -.00000038  00000-0  52892-4 0  9994
2 03811 101.9086 201.8588 0137748 345.3780 170.8515 12.76397524689592

Отслеживайте DELTA 1 DEB в реальном времени с AllMySat

Download on the App Store